COSMOS 2251 DEB

Satellite information

Favourite Embed

Satellite Type and Status

DEBRISIN ORBIT

Key statistics

Satellite COSMOS 2251 DEB at a glance.

Uptime

11814

Days in orbit

Revolutions

≈ 14.4

Per day

Orbit

LEO

Low Earth Orbit

Inclination

74.1

Latest

Satellite identification and parameters

Extended collection of information and parameters for COSMOS 2251 DEB.

Object identification

Identified? True

Debris? True

Object name: COSMOS 2251 DEB

International designator: 1993-036RX

Object number (NORAD): 34430

Object ID (CCSDS): 34430

Country: COMMONWEALTH OF INDEPENDENT STATES (CIS)

Current information (Y/N): Y

RCS size: SMALL

Orbital parameters

Period: 100.04 minutes

Inclination: 74.0537 deg

SMA: 7138.531 km

Apoapsis: 803.324 km

Periapsis: 717.468 km

RAAN: 42.9357 deg

Eccentricy: 0.0060136

Argument of periapsis: 128.0011 deg

Mean anomaly: 232.6596 deg

Mean motion: 14.39426402 rev/day

Mean motion (dot): 0.00002728 rev/day2

B* drag term: 0.00086576604 1/REarth

Two-line elements (TLE)

Creation date: Oct. 20, 2025, 2:10 a.m.

Reference frame: TEME

Reference center: EARTH

Epoch: Oct. 19, 2025, 6:15 p.m. UTC

TLE line 0: 0 COSMOS 2251 DEB

TLE line 1: 1 34430U 93036RX 25292.76070750 .00002728 00000-0 86577-3 0 9992

TLE line 2: 2 34430 74.0537 42.9357 0060136 128.0011 232.6596 14.39426402871780

Live tracking on map

Real-time ground track for satellite COSMOS 2251 DEB.

In-orbit conjunctions

A list of the most updated potential collisions computed for object COSMOS 2251 DEB.

Target Orbit TCA Probability of collision Miss distance Type
CZ-6A DEB LEO 2025-02-04 21:58:19 0.000229717 260.0 (m) DEBRIS
NOAA 16 DEB SSO 2024-11-12 10:18:39 0.0002807707 411.0 (m) DEBRIS

Associated space launch

Military communications satellite. Destroyed in a collision with Iridium 33.

COSMOS 2251 DEB was lifted into orbit during the mission ‘Kosmos-3M | Strela-2M 51’, on board a Kosmos-3M space rocket.

The launch took place on June 16, 1993, 4:17 a.m. from 132/1 (132L).

For more information about the launch, click the button.

Launch to space Kosmos-3M | Strela-2M 51
Kosmos-3M | Strela-2M 51

Agency: N/A

Status: Launch Successful

Launch date: June 16, 1993, 4:17 a.m. UTC

Rocket: Kosmos-3M

Launch pad: 132/1 (132L)

Location: Plesetsk Cosmodrome, Russian Federation

...

Latest news about this satellite

There are no fresh news available about this satellite. Check back as we update our databases every day.


Newsletter sign-up

Weekly statistics, charts and insights to help you stay on top of the space industry.